ASA776 KSFO-KLAS

Flight info

Callsign ASA776
Flight time 1h 16m
Altitude 35000
Route WESLA5 NTELL Q174 FLCHR COKTL4
Aircraft B738/M-SDE2E3FGHIRWXY/LB1

Departure

Time 2026-05-06 04:48
Airport San Francisco International Airport (KSFO)

Arrival

Time 2026-05-06 06:04
Airport Harry Reid International Airport (KLAS)
Time Latitude Longitude Altitude Speed Heading
2026-05-06 04:03 37.61190 -122.38435 16 ft 0 kts 295°
2026-05-06 04:36 37.61189 -122.38434 16 ft 1 kts 294°
2026-05-06 04:36 37.61177 -122.38411 16 ft 4 kts 340°
2026-05-06 04:36 37.61155 -122.38414 18 ft 4 kts 26°
2026-05-06 04:37 37.61146 -122.38419 17 ft 0 kts 27°
2026-05-06 04:40 37.61151 -122.38416 18 ft 2 kts 27°
2026-05-06 04:40 37.61179 -122.38398 16 ft 7 kts 29°
2026-05-06 04:41 37.61234 -122.38358 16 ft 12 kts 29°
2026-05-06 04:41 37.61312 -122.38305 14 ft 14 kts 30°
2026-05-06 04:41 37.61350 -122.38228 13 ft 11 kts 100°
2026-05-06 04:41 37.61384 -122.38151 15 ft 11 kts 36°
2026-05-06 04:42 37.61394 -122.38066 14 ft 11 kts 114°
2026-05-06 04:42 37.61361 -122.37982 13 ft 11 kts 117°
2026-05-06 04:42 37.61320 -122.37884 13 ft 14 kts 117°
2026-05-06 04:42 37.61276 -122.37779 16 ft 13 kts 117°
2026-05-06 04:43 37.61235 -122.37675 16 ft 14 kts 108°
2026-05-06 04:43 37.61242 -122.37550 17 ft 16 kts 68°
2026-05-06 04:43 37.61322 -122.37456 20 ft 16 kts 28°
2026-05-06 04:43 37.61427 -122.37387 22 ft 17 kts 27°
2026-05-06 04:44 37.61525 -122.37302 23 ft 17 kts 49°
2026-05-06 04:44 37.61559 -122.37159 21 ft 19 kts 95°
2026-05-06 04:44 37.61505 -122.37001 23 ft 20 kts 117°
2026-05-06 04:44 37.61422 -122.36864 18 ft 21 kts 130°
2026-05-06 04:45 37.61332 -122.36693 18 ft 26 kts 117°
2026-05-06 04:45 37.61245 -122.36491 14 ft 26 kts 118°
2026-05-06 04:45 37.61163 -122.36296 16 ft 24 kts 118°
2026-05-06 04:45 37.61087 -122.36117 17 ft 21 kts 118°
2026-05-06 04:46 37.61053 -122.35982 18 ft 13 kts 82°
2026-05-06 04:46 37.61094 -122.35910 19 ft 6 kts 31°
2026-05-06 04:46 37.61098 -122.35907 18 ft 0 kts 30°
2026-05-06 04:46 37.61111 -122.35898 18 ft 7 kts 30°
2026-05-06 04:47 37.61173 -122.35861 19 ft 6 kts 353°
2026-05-06 04:47 37.61202 -122.35916 17 ft 11 kts 298°
2026-05-06 04:47 37.61309 -122.36173 13 ft 65 kts 298°
2026-05-06 04:47 37.61618 -122.36904 20 ft 121 kts 298°
2026-05-06 04:48 37.62094 -122.38017 83 ft 160 kts 299°
2026-05-06 04:48 37.62641 -122.39244 619 ft 164 kts 297°
2026-05-06 04:48 37.63182 -122.40516 1247 ft 166 kts 296°
2026-05-06 04:48 37.63747 -122.41894 1603 ft 188 kts 296°
2026-05-06 04:49 37.64398 -122.43429 1856 ft 207 kts 297°
2026-05-06 04:49 37.65112 -122.45090 2135 ft 223 kts 297°
2026-05-06 04:49 37.65883 -122.46853 2594 ft 233 kts 297°
2026-05-06 04:49 37.66671 -122.48646 3137 ft 241 kts 292°
2026-05-06 04:50 37.66910 -122.50773 3475 ft 255 kts 255°
2026-05-06 04:50 37.66063 -122.52738 4074 ft 262 kts 225°
2026-05-06 04:50 37.64531 -122.53984 4746 ft 267 kts 199°
2026-05-06 04:50 37.62675 -122.54213 5320 ft 275 kts 169°
2026-05-06 04:51 37.60833 -122.53424 5868 ft 283 kts 154°
2026-05-06 04:51 37.59026 -122.52423 6591 ft 285 kts 155°
2026-05-06 04:51 37.57180 -122.51474 7258 ft 289 kts 156°
2026-05-06 04:51 37.55288 -122.50534 7895 ft 294 kts 156°
2026-05-06 04:52 37.53372 -122.49595 8608 ft 296 kts 156°
2026-05-06 04:52 37.51449 -122.48657 9414 ft 296 kts 156°
2026-05-06 04:52 37.49541 -122.47651 10146 ft 298 kts 147°
2026-05-06 04:52 37.47991 -122.45896 10472 ft 310 kts 124°
2026-05-06 04:53 37.46695 -122.43615 10649 ft 331 kts 122°
2026-05-06 04:53 37.45350 -122.41197 10814 ft 352 kts 122°
2026-05-06 04:53 37.43891 -122.38619 11120 ft 366 kts 123°
2026-05-06 04:53 37.42382 -122.35993 11659 ft 372 kts 123°
2026-05-06 04:54 37.41003 -122.33243 12319 ft 371 kts 110°
2026-05-06 04:54 37.40319 -122.30145 13043 ft 369 kts 100°
2026-05-06 04:54 37.39736 -122.26980 13742 ft 373 kts 100°
2026-05-06 04:54 37.39131 -122.23785 14347 ft 377 kts 100°
2026-05-06 04:55 37.38509 -122.20567 14984 ft 380 kts 101°
2026-05-06 04:55 37.37875 -122.17325 15634 ft 383 kts 101°
2026-05-06 04:55 37.37230 -122.14055 16294 ft 387 kts 101°
2026-05-06 04:55 37.36583 -122.10795 16911 ft 391 kts 101°
2026-05-06 04:56 37.35921 -122.07475 17527 ft 394 kts 101°
2026-05-06 04:56 37.35251 -122.04118 18137 ft 398 kts 100°
2026-05-06 04:56 37.34571 -122.00723 18675 ft 402 kts 100°
2026-05-06 04:56 37.33885 -121.97304 19209 ft 405 kts 100°
2026-05-06 04:57 37.33193 -121.93860 19777 ft 407 kts 100°
2026-05-06 04:57 37.32499 -121.90414 20333 ft 409 kts 100°
2026-05-06 04:57 37.31798 -121.86933 20891 ft 411 kts 99°
2026-05-06 04:57 37.31092 -121.83438 21409 ft 414 kts 99°
2026-05-06 04:58 37.30380 -121.79916 21921 ft 417 kts 99°
2026-05-06 04:58 37.29665 -121.76383 22425 ft 420 kts 99°
2026-05-06 04:58 37.28942 -121.72820 22907 ft 422 kts 99°
2026-05-06 04:58 37.28214 -121.69235 23392 ft 425 kts 99°
2026-05-06 04:59 37.27479 -121.65627 23808 ft 428 kts 99°
2026-05-06 04:59 37.26737 -121.61985 24138 ft 431 kts 99°
2026-05-06 04:59 37.26000 -121.58381 24578 ft 431 kts 99°
2026-05-06 04:59 37.25254 -121.54740 25032 ft 432 kts 99°
2026-05-06 05:00 37.24505 -121.51081 25405 ft 434 kts 99°
2026-05-06 05:00 37.23750 -121.47401 25763 ft 437 kts 99°
2026-05-06 05:00 37.22989 -121.43700 26146 ft 439 kts 99°
2026-05-06 05:00 37.22221 -121.39973 26556 ft 440 kts 99°
2026-05-06 05:01 37.21452 -121.36250 26928 ft 442 kts 99°
2026-05-06 05:01 37.20679 -121.32508 27242 ft 444 kts 99°
2026-05-06 05:01 37.19899 -121.28739 27563 ft 446 kts 99°
2026-05-06 05:01 37.19116 -121.24965 27910 ft 448 kts 99°
2026-05-06 05:02 37.18329 -121.21177 28234 ft 450 kts 99°
2026-05-06 05:02 37.17545 -121.17408 28553 ft 452 kts 99°
2026-05-06 05:02 37.16749 -121.13595 28923 ft 453 kts 99°
2026-05-06 05:02 37.15950 -121.09771 29273 ft 454 kts 99°
2026-05-06 05:03 37.15147 -121.05935 29639 ft 454 kts 99°
2026-05-06 05:03 37.14345 -121.02117 30101 ft 452 kts 99°
2026-05-06 05:03 37.13546 -120.98321 30520 ft 449 kts 99°
2026-05-06 05:03 37.13008 -120.95764 30792 ft 448 kts 99°
2026-05-06 05:04 37.11957 -120.90780 31308 ft 446 kts 98°
2026-05-06 05:04 37.11432 -120.88292 31546 ft 445 kts 98°
2026-05-06 05:04 37.10641 -120.84546 31874 ft 445 kts 98°
2026-05-06 05:04 37.09848 -120.80797 32207 ft 444 kts 98°
2026-05-06 05:05 37.09057 -120.77066 32573 ft 442 kts 98°
2026-05-06 05:05 37.08270 -120.73362 32969 ft 440 kts 98°
2026-05-06 05:05 37.07484 -120.69667 33339 ft 438 kts 98°
2026-05-06 05:05 37.06697 -120.65972 33650 ft 438 kts 98°
2026-05-06 05:06 37.05912 -120.62294 33944 ft 438 kts 98°
2026-05-06 05:06 37.05122 -120.58596 34250 ft 437 kts 98°
2026-05-06 05:06 37.04336 -120.54923 34507 ft 437 kts 98°
2026-05-06 05:06 37.03548 -120.51250 34737 ft 437 kts 98°
2026-05-06 05:07 37.02759 -120.47576 34980 ft 437 kts 98°
2026-05-06 05:07 37.01181 -120.40237 35088 ft 440 kts 98°
2026-05-06 05:08 36.99586 -120.32868 35112 ft 436 kts 98°
2026-05-06 05:08 36.98002 -120.25570 35108 ft 433 kts 98°
2026-05-06 05:09 36.96421 -120.18296 35110 ft 432 kts 98°
2026-05-06 05:09 36.94844 -120.11064 35128 ft 431 kts 98°
2026-05-06 05:10 36.93263 -120.03836 35117 ft 431 kts 98°
2026-05-06 05:10 36.91685 -119.96646 35094 ft 433 kts 98°
2026-05-06 05:11 36.90588 -119.89361 35091 ft 419 kts 81°
2026-05-06 05:11 36.91029 -119.85792 35077 ft 412 kts 69°
2026-05-06 05:11 36.92010 -119.82453 35117 ft 409 kts 64°
2026-05-06 05:12 36.94221 -119.75873 35097 ft 411 kts 63°
2026-05-06 05:12 36.96441 -119.69274 35076 ft 412 kts 64°
2026-05-06 05:13 36.98617 -119.62677 35076 ft 413 kts 64°
2026-05-06 05:13 37.00792 -119.56008 35071 ft 414 kts 64°
2026-05-06 05:14 37.02956 -119.49337 35070 ft 414 kts 64°
2026-05-06 05:14 37.05125 -119.42640 35044 ft 414 kts 64°
2026-05-06 05:15 37.07286 -119.35956 35040 ft 414 kts 64°
2026-05-06 05:15 37.09447 -119.29252 35047 ft 415 kts 64°
2026-05-06 05:16 37.11590 -119.22591 35022 ft 415 kts 64°
2026-05-06 05:16 37.13745 -119.15876 35032 ft 415 kts 64°
2026-05-06 05:17 37.15900 -119.09148 35021 ft 415 kts 64°
2026-05-06 05:17 37.18051 -119.02415 35011 ft 416 kts 64°
2026-05-06 05:18 37.20197 -118.95678 35016 ft 416 kts 64°
2026-05-06 05:18 37.22343 -118.88930 34994 ft 417 kts 64°
2026-05-06 05:19 37.24486 -118.82173 34993 ft 417 kts 64°
2026-05-06 05:19 37.26628 -118.75405 34972 ft 417 kts 65°
2026-05-06 05:20 37.28065 -118.68321 34986 ft 424 kts 79°
2026-05-06 05:20 37.28577 -118.60923 35005 ft 426 kts 79°
2026-05-06 05:21 37.29118 -118.53582 35016 ft 424 kts 79°
2026-05-06 05:21 37.29673 -118.46210 35044 ft 424 kts 79°
2026-05-06 05:22 37.30229 -118.38829 35026 ft 423 kts 79°
2026-05-06 05:22 37.30778 -118.31480 35038 ft 422 kts 79°
2026-05-06 05:23 37.31318 -118.24161 35022 ft 420 kts 79°
2026-05-06 05:23 37.32119 -118.13210 34983 ft 419 kts 79°
2026-05-06 05:24 37.32647 -118.05918 34906 ft 419 kts 79°
2026-05-06 05:24 37.33167 -117.98660 34918 ft 420 kts 79°
2026-05-06 05:25 37.33689 -117.91329 34919 ft 422 kts 79°
2026-05-06 05:25 37.34207 -117.83967 34915 ft 423 kts 79°
2026-05-06 05:26 37.34722 -117.76586 34923 ft 424 kts 79°
2026-05-06 05:26 37.35234 -117.69197 34918 ft 425 kts 79°
2026-05-06 05:27 37.35741 -117.61791 34905 ft 425 kts 79°
2026-05-06 05:27 37.36241 -117.54430 34921 ft 425 kts 79°
2026-05-06 05:28 37.36743 -117.47016 34938 ft 426 kts 79°
2026-05-06 05:28 37.37239 -117.39592 34922 ft 426 kts 79°
2026-05-06 05:29 37.37712 -117.32162 34912 ft 428 kts 83°
2026-05-06 05:29 37.37392 -117.28410 34918 ft 440 kts 98°
2026-05-06 05:29 37.36343 -117.24748 34914 ft 451 kts 109°
2026-05-06 05:30 37.34645 -117.21371 34904 ft 464 kts 122°
2026-05-06 05:30 37.32506 -117.18309 34913 ft 467 kts 125°
2026-05-06 05:30 37.28063 -117.12339 34914 ft 468 kts 126°
2026-05-06 05:31 37.23650 -117.06327 34901 ft 467 kts 125°
2026-05-06 05:31 37.19302 -117.00286 34902 ft 465 kts 125°
2026-05-06 05:32 37.14981 -116.94269 34895 ft 464 kts 125°
2026-05-06 05:32 37.10627 -116.88283 34896 ft 466 kts 128°
2026-05-06 05:33 37.05425 -116.83259 34920 ft 476 kts 139°
2026-05-06 05:33 36.99936 -116.78690 34894 ft 476 kts 140°
2026-05-06 05:34 36.94439 -116.74067 34824 ft 476 kts 139°
2026-05-06 05:34 36.91683 -116.71719 34228 ft 480 kts 138°
2026-05-06 05:34 36.88933 -116.69363 33553 ft 479 kts 138°
2026-05-06 05:35 36.86187 -116.67009 32823 ft 479 kts 138°
2026-05-06 05:35 36.83436 -116.64661 32075 ft 479 kts 138°
2026-05-06 05:35 36.80673 -116.62308 31326 ft 480 kts 138°
2026-05-06 05:35 36.77913 -116.59959 30559 ft 481 kts 139°
2026-05-06 05:36 36.75146 -116.57605 29738 ft 482 kts 139°
2026-05-06 05:36 36.72368 -116.55243 28777 ft 483 kts 139°
2026-05-06 05:36 36.69607 -116.52900 28166 ft 478 kts 139°
2026-05-06 05:36 36.66870 -116.50577 27507 ft 472 kts 139°
2026-05-06 05:37 36.64354 -116.48109 26919 ft 459 kts 130°
2026-05-06 05:37 36.62210 -116.45235 26329 ft 449 kts 124°
2026-05-06 05:37 36.60192 -116.42299 25741 ft 444 kts 124°
2026-05-06 05:37 36.58191 -116.39390 25162 ft 440 kts 125°
2026-05-06 05:38 36.56196 -116.36520 24591 ft 437 kts 126°
2026-05-06 05:38 36.54203 -116.33682 24008 ft 434 kts 126°
2026-05-06 05:38 36.52213 -116.30869 23432 ft 432 kts 126°
2026-05-06 05:38 36.50243 -116.28096 23119 ft 421 kts 126°
2026-05-06 05:39 36.48331 -116.25409 22907 ft 408 kts 126°
2026-05-06 05:39 36.46479 -116.22805 22721 ft 396 kts 126°
2026-05-06 05:39 36.44678 -116.20273 22395 ft 388 kts 126°
2026-05-06 05:39 36.42915 -116.17793 21966 ft 385 kts 126°
2026-05-06 05:40 36.41151 -116.15315 21523 ft 382 kts 126°
2026-05-06 05:40 36.39398 -116.12854 21104 ft 379 kts 126°
2026-05-06 05:40 36.37655 -116.10408 20676 ft 376 kts 127°
2026-05-06 05:40 36.35927 -116.07986 20262 ft 373 kts 127°
2026-05-06 05:41 36.34210 -116.05582 19844 ft 371 kts 127°
2026-05-06 05:41 36.32500 -116.03196 19434 ft 370 kts 127°
2026-05-06 05:41 36.30801 -116.00819 19194 ft 363 kts 127°
2026-05-06 05:41 36.29148 -115.98505 19031 ft 354 kts 127°
2026-05-06 05:42 36.27535 -115.96252 18869 ft 345 kts 127°
2026-05-06 05:42 36.25958 -115.94055 18745 ft 336 kts 128°
2026-05-06 05:42 36.24442 -115.91894 18507 ft 331 kts 125°
2026-05-06 05:42 36.23015 -115.89658 18183 ft 329 kts 124°
2026-05-06 05:43 36.21625 -115.87414 17839 ft 328 kts 124°
2026-05-06 05:43 36.20246 -115.85190 17549 ft 323 kts 124°
2026-05-06 05:43 36.18875 -115.82997 17226 ft 321 kts 124°
2026-05-06 05:43 36.17509 -115.80825 16892 ft 319 kts 124°
2026-05-06 05:44 36.16147 -115.78668 16597 ft 317 kts 124°
2026-05-06 05:44 36.14806 -115.76551 16288 ft 315 kts 124°
2026-05-06 05:44 36.13485 -115.74398 15964 ft 315 kts 129°
2026-05-06 05:44 36.11726 -115.72760 15609 ft 323 kts 153°
2026-05-06 05:45 36.09529 -115.72096 15250 ft 330 kts 175°
2026-05-06 05:45 36.07219 -115.72088 14909 ft 333 kts 180°
2026-05-06 05:45 36.04896 -115.72191 14546 ft 334 kts 181°
2026-05-06 05:45 36.02573 -115.72311 14190 ft 334 kts 181°
2026-05-06 05:46 36.00254 -115.72435 13890 ft 332 kts 181°
2026-05-06 05:46 35.97964 -115.72562 13641 ft 327 kts 181°
2026-05-06 05:46 35.95701 -115.72690 13372 ft 323 kts 181°
2026-05-06 05:46 35.93461 -115.72815 13104 ft 320 kts 181°
2026-05-06 05:47 35.91243 -115.72935 12845 ft 318 kts 181°
2026-05-06 05:47 35.89041 -115.73050 12585 ft 316 kts 181°
2026-05-06 05:47 35.86851 -115.73160 12329 ft 314 kts 181°
2026-05-06 05:47 35.84672 -115.73266 12078 ft 313 kts 181°
2026-05-06 05:48 35.82528 -115.73347 11826 ft 311 kts 176°
2026-05-06 05:48 35.80422 -115.72741 11549 ft 307 kts 150°
2026-05-06 05:48 35.78781 -115.71152 11307 ft 299 kts 125°
2026-05-06 05:48 35.77877 -115.68934 11082 ft 291 kts 100°
2026-05-06 05:49 35.77586 -115.66486 10855 ft 288 kts 92°
2026-05-06 05:49 35.77417 -115.64030 10628 ft 288 kts 91°
2026-05-06 05:49 35.77266 -115.61574 10391 ft 288 kts 91°
2026-05-06 05:49 35.77119 -115.59119 10156 ft 287 kts 91°
2026-05-06 05:50 35.76978 -115.56661 10075 ft 289 kts 91°
2026-05-06 05:50 35.76961 -115.54198 10015 ft 284 kts 74°
2026-05-06 05:50 35.77704 -115.51986 9983 ft 282 kts 61°
2026-05-06 05:50 35.78306 -115.50562 9813 ft 285 kts 60°
2026-05-06 05:51 35.79253 -115.48427 9545 ft 282 kts 59°
2026-05-06 05:51 35.80498 -115.45654 9249 ft 276 kts 59°
2026-05-06 05:51 35.81121 -115.44265 9117 ft 272 kts 59°
2026-05-06 05:51 35.82029 -115.42231 8911 ft 269 kts 59°
2026-05-06 05:52 35.82910 -115.40250 8775 ft 266 kts 59°
2026-05-06 05:52 35.83794 -115.38252 8646 ft 265 kts 59°
2026-05-06 05:52 35.84670 -115.36270 8508 ft 260 kts 59°
2026-05-06 05:52 35.85520 -115.34339 8375 ft 254 kts 60°
2026-05-06 05:53 35.86351 -115.32452 8252 ft 247 kts 60°
2026-05-06 05:53 35.87161 -115.30610 8119 ft 242 kts 60°
2026-05-06 05:53 35.87954 -115.28804 8045 ft 237 kts 59°
2026-05-06 05:53 35.88732 -115.27030 8044 ft 234 kts 60°
2026-05-06 05:54 35.89508 -115.25258 8040 ft 235 kts 60°
2026-05-06 05:54 35.90285 -115.23488 8040 ft 234 kts 59°
2026-05-06 05:54 35.91057 -115.21724 8036 ft 233 kts 59°
2026-05-06 05:54 35.91820 -115.19980 8044 ft 230 kts 59°
2026-05-06 05:55 35.92580 -115.18246 8043 ft 229 kts 60°
2026-05-06 05:55 35.93339 -115.16511 8034 ft 230 kts 60°
2026-05-06 05:55 35.94103 -115.14763 8045 ft 233 kts 59°
2026-05-06 05:55 35.94868 -115.13016 8046 ft 235 kts 59°
2026-05-06 05:56 35.95640 -115.11245 8038 ft 235 kts 59°
2026-05-06 05:56 35.96416 -115.09466 8044 ft 235 kts 60°
2026-05-06 05:56 35.97191 -115.07689 8032 ft 235 kts 59°
2026-05-06 05:56 35.97965 -115.05915 8033 ft 234 kts 59°
2026-05-06 05:57 35.98734 -115.04149 8032 ft 233 kts 60°
2026-05-06 05:57 35.99500 -115.02387 8040 ft 232 kts 60°
2026-05-06 05:57 35.99979 -115.00470 7864 ft 242 kts 87°
2026-05-06 05:57 35.99943 -114.98359 7577 ft 248 kts 90°
2026-05-06 05:58 35.99915 -114.96241 7269 ft 245 kts 90°
2026-05-06 05:58 35.99901 -114.94163 6958 ft 240 kts 88°
2026-05-06 05:58 36.00399 -114.92258 6609 ft 232 kts 52°
2026-05-06 05:58 36.01568 -114.91001 6349 ft 221 kts 33°
2026-05-06 05:59 36.02891 -114.90115 6021 ft 213 kts 15°
2026-05-06 05:59 36.04303 -114.90116 5801 ft 198 kts 343°
2026-05-06 05:59 36.05539 -114.90763 5538 ft 191 kts 326°
2026-05-06 05:59 36.06588 -114.91705 5280 ft 186 kts 307°
2026-05-06 06:00 36.07207 -114.93064 5059 ft 178 kts 282°
2026-05-06 06:00 36.07377 -114.94555 4842 ft 174 kts 268°
2026-05-06 06:00 36.07383 -114.96053 4611 ft 175 kts 266°
2026-05-06 06:00 36.07380 -114.97553 4408 ft 172 kts 267°
2026-05-06 06:01 36.07486 -114.99011 4194 ft 169 kts 275°
2026-05-06 06:01 36.07603 -115.00444 3888 ft 170 kts 270°
2026-05-06 06:01 36.07618 -115.01883 3652 ft 165 kts 267°
2026-05-06 06:01 36.07628 -115.03273 3471 ft 160 kts 268°
2026-05-06 06:02 36.07644 -115.04652 3296 ft 155 kts 268°
2026-05-06 06:02 36.07658 -115.05923 3174 ft 146 kts 265°
2026-05-06 06:02 36.07655 -115.07175 3008 ft 149 kts 264°
2026-05-06 06:02 36.07654 -115.08498 2860 ft 161 kts 265°
2026-05-06 06:03 36.07649 -115.09859 2592 ft 154 kts 267°
2026-05-06 06:03 36.07643 -115.11168 2384 ft 154 kts 268°
2026-05-06 06:03 36.07643 -115.12483 2184 ft 152 kts 266°
2026-05-06 06:03 36.07638 -115.13731 2124 ft 131 kts 270°
2026-05-06 06:04 36.07642 -115.14595 2123 ft 64 kts 270°
2026-05-06 06:04 36.07640 -115.14946 2122 ft 19 kts 269°
2026-05-06 06:04 36.07652 -115.15086 2126 ft 12 kts 304°
2026-05-06 06:04 36.07727 -115.15107 2127 ft 11 kts 360°
2026-05-06 06:05 36.07777 -115.15108 2126 ft 7 kts 359°
2026-05-06 06:05 36.07822 -115.15109 2126 ft 7 kts 358°
2026-05-06 06:05 36.07867 -115.15081 2126 ft 9 kts 68°
2026-05-06 06:05 36.07869 -115.14984 2124 ft 12 kts 94°
2026-05-06 06:06 36.07861 -115.14870 2123 ft 16 kts 95°
2026-05-06 06:06 36.07852 -115.14713 2118 ft 20 kts 96°
2026-05-06 06:06 36.07841 -115.14539 2117 ft 20 kts 93°
2026-05-06 06:06 36.07828 -115.14370 2121 ft 19 kts 94°
2026-05-06 06:07 36.07853 -115.14250 2116 ft 14 kts 26°
2026-05-06 06:07 36.07949 -115.14241 2114 ft 14 kts
2026-05-06 06:07 36.08050 -115.14242 2110 ft 15 kts 358°
2026-05-06 06:07 36.08165 -115.14243 2104 ft 17 kts
2026-05-06 06:08 36.08284 -115.14237 2099 ft 17 kts 17°
2026-05-06 06:08 36.08369 -115.14146 2095 ft 14 kts 45°
2026-05-06 06:08 36.08424 -115.14077 2090 ft 5 kts 44°
2026-05-06 06:08 36.08427 -115.14074 2090 ft 0 kts 44°
2026-05-06 06:09 36.08433 -115.14069 2090 ft 3 kts 36°
2026-05-06 06:09 36.08473 -115.14058 2087 ft 9 kts
2026-05-06 06:09 36.08529 -115.14056 2084 ft 1 kts 359°